Location: Lombray
(49.5154°N, 3.1089°E)
Time: 12:02:04
(UTC+00:00)

Helios 1B rocket - Pass Details

Date: 15 May 2026
Orbit: 459 x 466 km, 98.2° (Epoch: 5 June)

Event Time Altitude Azimuth Distance (km) Brightness Sun altitude
Exits shadow 21:22:33 13° 89° (E) 1,480 4.2 -14.6°
Maximum altitude 21:24:02 16° 61° (ENE) 1,328 4.2 -14.8°
Drops below altitude 10° 21:26:12 10° 23° (NNE) 1,646 5.2 -15.0°
Sets 21:28:51 0° 1° (N) 2,527 6.7 -15.2°
